Temperature
17 17 17 17 17 17 17 17 17 17 18 18 17 18 18 18 18 18 18 18 18 18 18 18 18 18 18 18 18 18 18 18 18 18 18 18 18 18 18 18 18 17 18
17 16 17 17 17 17 17 17 17 17 17 17 17 17 17 17 17 17 18 18 18 18 18 17 17 17 17 17 17 17 17 17 17 17 17 17 17 17 18 18 17 17 17
17 17 17 17 17 17 17 17 17 17 17 17 17 17 17 17 17 17 17 17 17 18 17 17 17 17 17 17 17 17 17 17 17 17 17 17 17 17 17 17 17 17 17
17 17 17 17 17 17 17 17 17 17 17 17 17 17 17 17 17 17 17 17 17 17 17 17 17 17 17 17 17 17 17 17 17 17 17 17 17 17 17 17 17 17 17
17 16 17 17 17 17 17 17 17 17 17 17 17 17 17 17 17 17 17 17 17 17 17 17 17 17 17 17 17 17 17 17 17 17 17 17 17 17 17 17 17 17 17
17 17 17 17 17 17 17 17 17 17 17 17 17 17 17 17 17 17 17 17 17 17 17 17 17 17 17 17 17 17 17 17 16 16 16 16 16 17 17 17 17 17 17
17 17 17 17 17 17 17 17 17 17 17 17 17 17 17 17 17 17 17 17 17 17 17 17 17 17 17 17 17 17 17 16 16 16 16 16 16 17 17 17 16 16 16
17 17 17 17 17 17 17 17 17 17 17 17 17 17 17 17 17 17 17 17 17 17 17 17 17 17 17 17 17 17 17 16 16 16 16 16 16 16 17 17 16 16 16
17 17 17 17 17 17 17 17 17 17 17 17 17 17 17 17 17 17 17 17 17 17 16 16 16 16 17 16 17 16 16 16 16 16 16 16 16 16 16 17 16 16 16
17 17 17 17 17 17 17 17 17 17 17 17 17 17 17 16 16 16 16 17 16 16 16 16 16 16 16 16 16 16 16 15 15 15 15 16 16 16 16 16 16 16 16
17 17 17 17 17 17 16 16 16 16 16 16 16 16 16 16 16 16 16 16 16 16 16 16 16 16 16 16 16 16 15 15 15 15 15 15 16 16 16 16 16 16 16
17 17 17 17 17 17 16 16 16 16 16 16 16 16 16 16 16 16 16 16 16 16 16 16 16 16 15 15 15 15 15 15 15 15 15 15 15 15 16 16 16 16 16
17 17 17 17 17 17 16 16 16 16 16 16 16 16 16 16 16 16 16 16 16 16 15 15 15 15 15 15 15 15 15 15 15 15 15 15 15 15 15 15 15 15 15
17 17 17 17 17 17 17 16 16 16 16 16 16 16 16 16 16 16 16 15 15 15 15 15 15 15 15 15 15 15 15 15 15 15 15 15 15 15 15 15 15 15 15
17 17 17 17 17 17 17 16 16 16 16 16 16 16 16 16 16 16 15 15 15 15 15 15 15 15 15 15 14 14 14 14 14 14 14 15 15 14 15 15 15 15 15
17 17 17 17 17 17 16 16 16 16 16 16 16 16 16 16 16 15 15 15 15 15 15 15 15 15 15 14 14 14 14 14 14 14 14 14 14 14 14 14 14 14 15
17 17 17 17 17 17 16 16 16 16 16 16 16 16 16 15 15 15 15 15 15 15 15 15 15 15 14 14 14 14 14 14 14 14 14 14 14 14 14 14 14 14 14
17 17 17 17 17 16 16 16 16 16 16 16 15 15 15 15 15 15 15 15 15 15 15 15 14 14 14 14 14 14 14 14 14 14 14 14 14 14 14 14 14 14 14
17 17 17 17 17 16 16 16 16 16 16 16 15 15 15 15 15 15 15 15 15 14 14 14 14 14 14 14 14 14 14 13 13 13 13 13 13 13 13 14 14 14 14
17 17 17 17 17 16 16 16 16 16 16 15 15 15 15 15 15 15 15 15 14 14 14 14 14 14 14 14 14 14 13 13 13 13 13 13 13 13 13 13 13 13 13
17 17 17 17 17 16 16 16 16 16 15 15 15 15 15 15 15 15 15 14 14 14 14 14 14 14 14 14 14 14 14 13 13 13 13 13 13 13 13 13 13 13 13
17 17 17 17 16 16 16 16 16 16 15 15 15 15 15 15 15 14 14 14 14 14 14 14 14 13 13 13 13 14 14 14 13 13 13 12 12 12 12 12 12 13 13
16 16 16 16 16 16 16 16 16 15 15 15 15 15 15 15 15 14 14 14 14 14 14 14 13 13 13 13 13 13 14 14 13 13 13 12 12 12 12 12 12 12 12
16 16 16 16 16 16 16 16 15 15 15 15 15 15 14 14 14 14 14 14 14 13 13 13 13 13 13 13 12 13 13 13 13 13 13 12 12 12 12 12 12 12 12
16 16 16 16 16 16 16 15 15 15 15 15 14 14 14 14 14 14 14 14 13 13 13 13 13 13 13 12 12 12 12 12 12 13 13 12 12 12 12 12 12 12 12
16 16 16 15 16 15 15 15 15 15 15 14 14 14 14 14 14 14 14 13 13 13 13 13 13 13 12 12 12 12 12 12 12 12 12 12 12 12 12 12 11 11 11
Wind_Speed
5 6 7 7 8 8 9 9 9 10 10 10 10 10 10 10 10 10 9 10 10 10 9 9 9 9 9 8 8 8 8 8 8 7 7 7 7 7 6 4 2 5 7
4 6 7 7 8 8 9 10 10 10 11 10 10 10 10 10 10 10 10 10 10 10 10 9 9 9 9 9 8 8 8 8 8 7 6 7 8 7 6 6 5 6 6
5 6 7 8 8 8 9 10 10 10 11 10 10 10 10 10 10 10 11 10 10 10 10 10 9 9 9 9 9 9 8 9 8 6 4 6 8 8 6 6 6 5 5
5 6 8 8 8 8 9 9 10 10 10 10 10 10 10 10 10 10 11 11 10 11 10 10 10 9 10 10 10 9 8 8 7 4 5 6 7 9 7 7 6 5 5
6 6 8 7 8 9 9 10 10 10 10 10 10 10 10 10 10 10 11 11 11 11 10 10 10 10 10 10 10 10 9 8 7 6 7 6 7 7 7 6 6 6 6
6 7 9 8 8 9 9 10 10 10 10 10 10 10 10 10 11 11 11 11 11 11 10 10 10 10 10 10 10 10 9 8 5 7 7 6 6 6 5 5 5 6 6
6 7 9 9 8 9 9 10 10 10 10 10 11 10 11 11 11 11 11 10 10 11 11 11 11 11 11 11 11 11 10 8 7 7 6 6 7 6 5 5 6 6 7
6 6 8 8 9 9 9 9 10 10 10 10 10 10 10 10 10 10 11 10 10 11 11 12 12 12 13 12 12 11 10 8 7 7 7 7 8 7 6 6 6 7 8
6 6 6 6 7 8 9 9 10 10 10 10 10 9 9 9 10 10 10 11 11 11 12 12 13 13 13 12 12 11 10 9 8 8 8 9 10 10 10 10 10 10 10
5 5 5 6 6 6 8 9 9 10 10 9 9 8 6 7 8 8 9 10 10 10 11 11 12 12 12 12 11 10 8 6 9 9 8 10 12 12 11 11 11 11 11
5 4 4 5 6 6 7 7 7 7 7 6 6 5 3 5 7 7 10 9 10 10 10 10 10 10 9 10 10 8 6 7 9 8 9 12 12 12 12 11 12 12 12
5 5 4 4 5 5 5 5 5 6 6 6 6 5 5 6 6 6 8 8 9 8 9 9 7 6 5 7 8 6 7 8 8 8 10 12 12 12 11 11 12 12 12
4 4 4 4 4 4 4 4 4 4 5 5 6 6 5 5 5 5 5 5 6 5 7 6 5 6 7 7 7 7 8 7 7 7 10 12 13 13 12 12 12 12 12
4 4 3 3 3 4 4 4 3 4 4 5 5 6 5 4 4 4 4 5 5 5 5 5 4 6 7 7 7 8 8 7 7 7 9 13 13 13 13 13 13 12 11
3 2 3 3 3 3 3 2 3 4 4 5 5 6 6 4 4 4 4 4 5 5 4 4 4 6 6 7 7 7 8 8 8 8 8 12 13 13 13 13 13 12 12
2 2 2 2 3 3 3 2 3 3 3 5 5 6 6 5 4 4 4 4 4 4 4 4 5 4 5 5 6 7 7 7 8 8 8 9 12 13 14 13 13 13 12
2 2 2 1 2 2 3 3 3 3 3 4 4 5 6 5 5 4 4 4 4 4 4 4 4 4 4 4 5 6 6 7 7 8 8 7 8 11 12 13 12 12 12
1 1 2 1 1 2 2 2 2 3 3 3 4 4 5 5 5 4 4 4 5 4 3 3 3 3 3 3 4 4 5 5 6 7 7 7 7 7 9 11 11 11 11
1 1 1 2 1 1 1 2 2 2 3 3 3 3 4 4 4 4 4 4 5 4 3 3 3 3 3 3 3 3 4 4 5 5 6 7 7 7 7 8 9 10 10
1 1 2 2 1 1 1 1 2 2 2 3 3 3 3 3 4 4 3 4 4 3 3 3 3 3 3 3 3 3 3 4 4 4 5 6 6 7 7 6 6 7 8
1 1 1 1 1 1 1 0 0 1 1 2 2 3 3 3 3 3 2 3 3 3 3 4 3 3 3 3 2 2 2 3 4 3 4 4 5 6 5 5 4 5 5
1 1 1 1 1 1 0 0 0 0 1 2 2 3 3 3 3 2 2 2 2 2 3 3 3 2 2 2 2 1 1 1 2 2 2 3 3 3 4 4 5 5 4
1 1 1 1 1 1 1 1 1 1 1 1 1 2 2 2 2 2 2 2 2 2 2 2 2 2 2 2 2 2 2 2 2 1 1 1 2 2 2 3 3 4 4
2 1 1 0 0 0 1 1 1 1 0 1 1 1 1 2 2 2 2 1 1 1 1 1 1 1 1 1 1 2 2 2 2 1 0 1 1 1 1 1 2 3 3
2 2 1 1 1 1 1 1 1 0 0 0 0 0 0 1 1 2 2 1 0 0 1 1 1 0 0 1 1 1 1 1 2 2 2 2 1 1 1 1 1 1 2
2 2 2 1 1 1 1 1 1 1 1 0 1 1 0 0 1 1 1 1 1 1 1 1 1 1 1 1 1 1 1 1 2 2 2 2 2 2 1 1 1 1 1
Wind_Direction
22 25 32 20 33 44 54 61 62 64 64 60 62 64 66 67 69 69 70 70 68 65 65 66 62 59 58 57 58 63 66 70 76 80 85 84 83 84 81 74 87 99 89
33 44 46 32 42 50 58 63 64 65 65 62 62 62 65 66 66 67 70 70 68 63 65 68 63 60 58 56 55 57 61 64 67 73 82 88 78 73 74 69 52 75 90
50 55 61 47 46 52 59 62 63 63 63 62 61 62 64 66 66 63 65 66 65 63 64 63 61 61 60 59 54 53 58 60 61 65 67 74 75 65 62 65 69 79 88
63 60 58 53 52 53 59 62 62 62 60 58 58 60 63 64 65 64 63 62 63 62 62 62 63 62 62 63 60 58 61 62 59 44 60 63 65 63 56 59 68 80 87
74 66 66 55 56 56 61 62 59 58 57 56 58 61 61 63 64 63 63 62 63 61 61 63 64 65 65 66 65 62 61 60 55 48 57 60 60 59 52 56 67 74 85
79 72 71 56 60 58 60 61 58 58 57 57 60 61 61 62 64 63 61 63 65 63 61 63 65 65 66 65 62 59 56 48 50 55 56 54 59 63 57 62 72 78 81
79 75 76 63 61 60 59 58 56 57 58 57 60 62 63 62 64 62 61 61 64 64 64 64 63 64 65 64 61 57 53 40 52 57 54 53 56 54 54 64 77 81 82
78 76 82 81 68 63 60 57 56 58 59 59 61 63 65 64 64 61 61 61 63 66 67 67 63 65 65 64 61 56 47 26 55 54 51 52 51 48 55 69 78 83 81
79 74 72 80 85 82 68 59 57 55 55 58 62 63 65 66 64 61 61 61 64 65 67 68 64 64 65 62 59 56 49 30 46 49 51 52 48 51 59 70 77 79 82
77 74 72 72 71 76 79 68 59 56 53 54 59 60 65 78 76 68 66 61 63 65 68 70 67 66 66 63 59 54 43 39 51 52 50 54 52 54 61 69 75 78 80
74 70 72 73 70 68 67 69 70 67 54 55 67 69 68 64 63 71 62 60 62 65 69 71 71 70 71 72 61 48 40 49 53 50 51 50 49 53 59 69 76 78 78
82 72 65 66 68 69 65 65 58 56 51 43 45 56 54 57 57 59 80 68 67 71 79 74 74 80 64 63 63 52 50 49 50 54 54 47 47 50 58 70 77 80 80
82 73 65 63 62 64 66 60 53 49 45 39 37 48 48 57 61 55 62 70 66 69 68 74 69 61 61 58 52 52 49 46 46 54 56 48 49 52 60 71 78 78 78
78 70 64 59 62 62 62 60 53 50 45 41 32 42 46 49 51 52 52 50 52 55 56 55 52 56 58 61 59 58 55 49 48 55 59 51 51 57 63 72 77 77 76
91 75 69 61 54 60 62 51 55 50 41 51 43 40 47 48 54 56 60 55 51 52 60 57 53 54 54 56 56 55 53 52 52 56 63 56 53 58 65 69 71 72 73
94 84 82 66 59 58 63 68 58 49 50 48 44 41 48 51 53 50 55 54 51 48 50 55 58 55 54 55 55 54 50 52 53 58 63 67 61 61 63 66 69 70 71
87 89 91 76 62 60 55 60 57 48 51 47 41 38 49 52 54 52 44 47 46 47 57 54 60 56 56 57 56 53 50 48 51 56 59 59 64 67 66 63 66 69 70
98 94 103 111 79 65 59 63 62 57 48 46 42 37 41 50 50 52 46 44 42 43 47 52 52 54 55 52 53 52 54 52 52 56 59 60 57 59 72 65 60 63 66
122 117 121 125 113 99 80 74 65 64 52 46 44 37 35 46 50 55 47 46 48 44 43 43 49 49 51 47 50 50 51 53 54 56 57 57 58 57 65 72 64 59 60
180 145 127 127 145 133 122 77 83 67 56 50 45 35 37 44 49 59 56 52 55 58 51 45 49 52 49 42 53 56 55 56 58 54 53 57 56 56 58 61 63 66 63
190 177 143 168 157 151 135 106 68 70 52 52 49 42 47 53 56 58 52 55 51 57 56 53 57 61 54 36 48 60 78 68 55 61 53 49 55 55 58 57 52 51 62
170 163 169 187 178 157 160 147 124 95 65 61 59 59 54 56 51 44 37 51 56 57 60 61 63 44 53 37 6 351 26 120 67 69 56 46 45 53 48 46 44 44 40
184 187 220 232 192 186 170 136 124 127 148 111 89 70 42 44 46 33 22 32 45 53 58 58 56 45 32 39 18 355 341 359 359 91 57 57 39 33 37 36 34 39 36
192 203 216 225 221 152 174 186 214 252 310 350 29 65 79 53 41 26 16 28 47 47 54 48 51 48 34 23 24 356 352 354 315 314 210 37 6 355 3 9 14 24 27
180 176 184 150 102 88 171 188 234 249 329 31 31 42 66 73 40 24 4 6 2 4 3 9 354 345 16 357 360 350 345 331 314 300 298 314 315 308 323 325 338 356 8
172 170 174 166 135 120 143 177 209 221 235 280 324 337 321 98 51 28 352 343 322 323 306 296 279 268 283 305 320 340 334 318 320 300 288 294 302 305 290 294 289 315 310
Height
1533 1531 1529 1528 1526 1525 1524 1523 1522 1521 1520 1519 1519 1518 1517 1516 1516 1515 1514 1514 1513 1512 1512 1511 1511 1510 1510 1509 1509 1508 1508 1507 1507 1506 1506 1506 1506 1506 1506 1506 1506 1507 1506
1535 1532 1530 1529 1528 1527 1526 1525 1524 1523 1522 1521 1520 1519 1519 1518 1517 1517 1516 1515 1515 1514 1513 1513 1512 1511 1511 1510 1510 1509 1509 1508 1508 1508 1508 1507 1507 1507 1507 1507 1507 1507 1507
1536 1534 1532 1530 1529 1528 1527 1527 1526 1525 1524 1523 1521 1521 1520 1519 1519 1518 1518 1517 1516 1516 1515 1514 1514 1513 1512 1512 1511 1510 1509 1509 1509 1509 1509 1508 1508 1507 1507 1507 1507 1507 1507
1537 1536 1534 1532 1531 1530 1529 1528 1527 1526 1525 1524 1523 1522 1521 1521 1520 1519 1519 1518 1518 1517 1516 1516 1515 1514 1513 1513 1512 1511 1510 1510 1510 1510 1510 1509 1508 1507 1507 1507 1507 1507 1507
1538 1537 1535 1534 1533 1532 1531 1530 1529 1528 1526 1525 1524 1523 1522 1522 1521 1521 1520 1520 1519 1518 1518 1517 1516 1515 1515 1514 1513 1512 1511 1511 1510 1510 1510 1509 1508 1507 1507 1506 1506 1507 1507
1540 1539 1537 1536 1535 1534 1533 1532 1530 1529 1528 1527 1526 1525 1524 1523 1522 1522 1522 1521 1521 1520 1519 1518 1518 1517 1516 1515 1514 1513 1513 1512 1512 1511 1510 1509 1508 1507 1506 1506 1505 1506 1507
1541 1540 1539 1538 1536 1535 1534 1533 1532 1531 1530 1529 1528 1527 1526 1525 1524 1524 1523 1523 1522 1521 1520 1520 1519 1518 1517 1516 1516 1515 1514 1513 1513 1512 1511 1510 1508 1506 1505 1504 1504 1505 1506
1542 1542 1541 1539 1538 1537 1536 1535 1534 1532 1531 1530 1529 1528 1528 1527 1526 1526 1525 1524 1524 1523 1522 1521 1521 1520 1519 1518 1517 1516 1515 1515 1514 1514 1512 1510 1507 1505 1503 1502 1503 1504 1506
1544 1543 1543 1542 1540 1539 1538 1536 1535 1534 1533 1532 1531 1530 1529 1529 1528 1527 1527 1526 1525 1524 1524 1523 1522 1521 1520 1519 1518 1517 1516 1515 1515 1514 1513 1510 1508 1505 1502 1501 1502 1504 1506
1545 1544 1544 1543 1543 1542 1540 1538 1537 1536 1534 1533 1532 1531 1531 1530 1529 1529 1528 1527 1527 1526 1525 1525 1524 1523 1522 1521 1520 1519 1518 1517 1516 1515 1513 1511 1509 1507 1504 1503 1504 1505 1506
1545 1545 1545 1545 1544 1543 1542 1540 1539 1537 1536 1534 1533 1532 1532 1532 1532 1531 1530 1529 1528 1528 1527 1526 1526 1525 1524 1523 1522 1521 1520 1519 1518 1517 1515 1513 1511 1508 1506 1505 1505 1506 1508
1546 1546 1546 1546 1545 1544 1543 1542 1541 1539 1537 1536 1534 1533 1533 1533 1533 1532 1531 1530 1530 1529 1528 1528 1527 1526 1526 1525 1524 1523 1522 1521 1519 1518 1516 1514 1512 1509 1506 1505 1506 1508 1509
1547 1547 1547 1546 1546 1545 1544 1543 1542 1540 1539 1537 1536 1534 1534 1534 1534 1533 1533 1532 1532 1531 1530 1530 1529 1528 1528 1527 1526 1525 1524 1522 1521 1520 1518 1515 1513 1510 1506 1505 1506 1509 1511
1548 1548 1547 1547 1547 1546 1545 1544 1543 1542 1541 1539 1537 1536 1535 1535 1535 1535 1534 1534 1533 1532 1532 1531 1530 1530 1529 1528 1528 1527 1525 1524 1522 1521 1519 1517 1515 1513 1510 1508 1510 1512 1513
1548 1548 1548 1548 1547 1547 1546 1545 1544 1543 1542 1541 1539 1538 1537 1537 1536 1536 1535 1534 1534 1534 1533 1532 1532 1531 1530 1529 1529 1528 1527 1525 1524 1522 1520 1519 1517 1516 1514 1513 1513 1514 1515
1549 1549 1549 1548 1548 1548 1547 1546 1545 1544 1543 1542 1541 1540 1539 1538 1538 1537 1537 1536 1535 1535 1535 1534 1533 1532 1531 1530 1530 1529 1528 1527 1526 1524 1522 1521 1519 1518 1518 1517 1516 1516 1516
1549 1549 1549 1548 1548 1548 1547 1547 1546 1545 1544 1543 1542 1541 1540 1539 1539 1538 1538 1537 1536 1536 1536 1535 1534 1533 1532 1532 1531 1530 1529 1528 1527 1526 1524 1523 1522 1521 1520 1520 1519 1519 1519
1549 1549 1549 1548 1548 1548 1547 1547 1546 1546 1545 1544 1542 1542 1541 1540 1540 1539 1538 1538 1537 1537 1536 1535 1535 1534 1533 1533 1532 1531 1530 1529 1528 1527 1526 1525 1524 1523 1522 1522 1521 1521 1521
1549 1549 1548 1548 1548 1548 1547 1547 1546 1546 1545 1544 1543 1542 1542 1541 1540 1540 1539 1538 1538 1537 1537 1536 1535 1535 1534 1533 1532 1532 1531 1530 1529 1529 1528 1527 1525 1524 1524 1523 1522 1522 1522
1549 1549 1548 1548 1548 1548 1547 1547 1546 1546 1545 1544 1544 1543 1542 1541 1541 1540 1539 1539 1538 1538 1537 1537 1536 1535 1534 1534 1533 1533 1532 1531 1530 1530 1529 1528 1527 1526 1525 1524 1523 1523 1522
1548 1548 1548 1548 1547 1547 1547 1546 1546 1546 1545 1544 1544 1543 1542 1541 1541 1540 1540 1539 1539 1538 1538 1537 1536 1535 1535 1534 1534 1533 1533 1532 1531 1530 1530 1529 1529 1527 1526 1526 1525 1523 1523
1547 1547 1547 1547 1547 1546 1546 1546 1545 1545 1545 1544 1543 1543 1542 1542 1541 1541 1540 1540 1539 1538 1538 1537 1536 1535 1535 1534 1535 1534 1534 1534 1532 1531 1531 1530 1530 1528 1527 1526 1525 1524 1523
1545 1546 1546 1546 1546 1546 1545 1545 1545 1544 1544 1544 1543 1543 1542 1542 1541 1540 1540 1539 1539 1538 1537 1537 1536 1535 1535 1535 1534 1535 1534 1533 1533 1533 1531 1530 1530 1529 1528 1527 1526 1525 1524
1544 1544 1545 1545 1545 1545 1544 1544 1544 1544 1544 1543 1543 1542 1542 1541 1540 1540 1539 1539 1538 1537 1537 1536 1536 1535 1535 1534 1534 1534 1535 1534 1534 1532 1532 1531 1530 1529 1528 1527 1526 1525 1524
1543 1543 1543 1543 1544 1543 1543 1543 1543 1543 1543 1542 1542 1541 1541 1540 1540 1539 1538 1538 1537 1537 1536 1536 1535 1535 1534 1534 1534 1533 1533 1532 1532 1532 1531 1531 1530 1529 1528 1527 1526 1525 1524
1541 1541 1542 1542 1542 1542 1542 1542 1542 1542 1541 1541 1540 1540 1540 1539 1539 1538 1537 1537 1536 1536 1535 1535 1534 1534 1533 1533 1533 1532 1532 1532 1531 1531 1530 1529 1529 1528 1527 1526 1525 1525 1523